Location: Brachstadt
(48.6975°N, 10.6755°E)
Time: 14:22:19
(UTC+00:00)

Cosmos 1805 - Pass Details

Date: 18 September 2020
Orbit: 524 x 531 km, 82.5° (Epoch: 23 October)

Event Time Altitude Azimuth Distance (km) Brightness Sun altitude
Exits shadow 19:00:17 25° 69° (ENE) 1,098 4.4 -16.5°
Drops below altitude 10° 19:02:51 10° 32° (NNE) 1,792 5.8 -16.8°
Sets 19:05:14 0° 20° (NNE) 2,689 6.9 -17.2°
